• Processing (Info)

  • MPEC 2020-M22 : 2020 MG

    The following Minor Planet Electronic Circular may be linked-to from your own Web pages, but must not otherwise be redistributed electronically.

    A form allowing access to any MPEC is at the bottom of this page.


    Read MPEC 2020-M21 Read MPEC 2020-M23


    M.P.E.C. 2020-M22                                 Issued 2020 June 18, 11:34 UT
    
         The Minor Planet Electronic Circulars contain information on unusual
             minor planets and routine data on comets.  They are published
        on behalf of Division F of the International Astronomical Union by the
              Minor Planet Center, Smithsonian Astrophysical Observatory,
                              Cambridge, MA 02138, U.S.A.
    
                 Prepared using the Tamkin Foundation Computer Network
    
                                  MPC@CFA.HARVARD.EDU
                URL https://www.minorplanetcenter.net/    ISSN 1523-6714
    
                                     2020 MG                                 
    
    
    Observations:
         K20M00G  C2020 06 13.38416817 51 58.196+04 38 52.66         21.5 GVEM022F52
         K20M00G  C2020 06 13.41330817 51 54.834+04 39 47.58         21.4 GVEM022F52
         K20M00G* C2020 06 17.41260417 44 00.432+06 48 26.81         21.08wUEM022F52
         K20M00G  C2020 06 17.42468817 43 58.803+06 48 50.91         20.89wUEM022F52
         K20M00G  C2020 06 17.43679917 43 57.177+06 49 14.65         20.65wUEM022F52
         K20M00G KC2020 06 17.92894917 42 53.86 +07 05 26.9          20.9 GVEM022L01
         K20M00G KC2020 06 17.93208517 42 53.41 +07 05 32.9          21.1 GVEM022L01
         K20M00G KC2020 06 17.93525817 42 53.00 +07 05 39.4          21.1 GVEM022L01
         K20M00G KC2020 06 17.93766617 42 52.68 +07 05 44.5          21.2 GVEM022L01
         K20M00G KC2020 06 18.19835317 42 18.71 +07 14 27.0          21.3 VuEM022H21
         K20M00G KC2020 06 18.20445817 42 17.87 +07 14 39.2          21.1 VuEM022H21
         K20M00G KC2020 06 18.20959117 42 17.18 +07 14 49.8          20.9 VuEM022H21
    
    Observer details:
    F52 Pan-STARRS 2, Haleakala.  Observers J. Bulger, K. Chambers, T. Dukes, T.
        Lowe, A. Schultz, M. Willman.  Measurers S. Chastel, M. Huber, Y.
        Ramanjooloo, R. Wainscoat, R. Weryk, K. Chambers, T. de Boer, L. Denneau,
        J. Fairlamb, H. Flewelling, C.-C. Lin, E. Magnier.  1.8-m Ritchey-Chretien
        + CCD.
    H21 Astronomical Research Observatory, Westfield.  Observer R. Holmes.
        Measurers S. Foglia, L. Buzzi, T. Linder, R. Holmes.  0.76-m f/3.0
        astrograph + CCD.
    L01 Visnjan Observatory, Tican.  Observer K. Korlevic.  1.0-m f/2.9 reflector
        + CCD.
    
    Orbital elements:
    2020 MG                                                  Earth MOID = 0.1819 AU
    Epoch 2020 May 31.0 TT = JDT 2459000.5                  Veres
    M 318.66764              (2000.0)            P               Q
    n   0.37338380     Peri.  167.71328     +0.94321572     -0.31382326
    a   1.9099958      Node   211.25921     +0.28423860     +0.93214049
    e   0.6447370      Incl.   12.11424     +0.17190850     +0.18063519
    P   2.64           H   20.8           G   0.15           U   8
    Residuals in seconds of arc
    200613 F52  0.0   0.1-    200617 F52  0.1+  0.1-    200617 L01  0.1+  0.0
    200613 F52  0.0   0.1+    200617 L01  0.1+  0.2-    200618 H21  0.0   0.1+
    200617 F52  0.0   0.1+    200617 L01  0.3-  0.4-    200618 H21  0.0   0.1+
    200617 F52  0.0   0.2+    200617 L01  0.0   0.3-    200618 H21  0.2+  0.4+
    
    Ephemeris:
    2020 MG                  a,e,i = 1.91, 0.64, 12                  q = 0.6786
    Date    TT    R. A. (2000) Decl.     Delta      r    Elong.  Phase     V
    2020 05 19    18 17 09.8 -05 57 52   0.8455  1.7479   140.3    21.7    22.7
    ...
    2020 06 03    18 07 03.4 -00 18 59   0.6524  1.6135   150.2    18.2    21.9
    ...
    2020 06 11    17 56 06.1 +03 25 48   0.5668  1.5386   151.9    18.1    21.4
    ...
    2020 06 17    17 44 52.7 +06 34 53   0.5112  1.4810   150.0    20.0    21.2
    2020 06 18    17 42 44.5 +07 07 58   0.5026  1.4713   149.5    20.5    21.2
    2020 06 19    17 40 31.7 +07 41 27   0.4943  1.4615   148.8    21.1    21.1
    ...
    2020 06 25    17 25 37.5 +11 09 43   0.4488  1.4023   143.3    25.6    21.0
    ...
    2020 07 03    17 01 31.0 +15 59 50   0.3993  1.3217   133.0    34.2    20.8
    ...
    2020 07 18    16 04 13.7 +24 53 51   0.3349  1.1664   108.5    55.7    20.8
    
    M. P. C. Staff               (C) Copyright 2020 MPC           M.P.E.C. 2020-M22
    


    Read MPEC 2020-M21 Read MPEC 2020-M23


    MPEC number:

    Enter an MPEC number in one of the following forms:

    • 1997-B01 (the full form)
    • J97B01 (the packed version of the full form)
    • B01 (the abbreviated form)